Skip Page Navigation
NASA JPL Caltech
NASA Logo - Jet Propulsion Laboratory + View the NASA Portal
+ Near-Earth Object (NEO) Program
Search JPL
JPL Home Earth Solar System Stars & Galaxies Technology
JPL Solar System Dynamics
BODIES ORBITS EPHEMERIDES TOOLS PHYSICAL DATA DISCOVERY FAQ SITE MAP
JPL Small-Body Database Browser
Search: [ help ]  
(2007 LB15)
Classification: Aten [NEO, PHA]          SPK-ID: 3378415
Ephemeris | Orbit Diagram | Orbital Elements | Physical Parameters | Close-Approach Data ]

[ hide orbit diagram ]
Orbit Diagram
Note: Make sure you have Java enabled on your browser to see the applet. This applet is provided as a 3D orbit visualization tool. The applet was implemented using 2-body methods, and hence should not be used for determining accurate long-term trajectories (over several years or decades) or planetary encounter circumstances. For accurate long-term ephemerides, please instead use our Horizons system.
Orbit Viewer

Additional Notes: the orbits shown in the applet are color coded. The planets are white lines, and the asteroid/comet is a blue line. The bright white line indicates the portion of the orbit that is above the ecliptic plane, and the darker portion is below the ecliptic plane. Likewise for the asteroid/comet orbit, the light blue indicates the portion above the ecliptic plane, and the dark blue the portion below the ecliptic plane.

Orbit Viewer applet originally written and kindly provided by Osamu Ajiki (AstroArts), and further modified by Ron Baalke (JPL).


Orbital Elements at Epoch 2456400.5 (2013-Apr-18.0) TDB
Reference: JPL 30 (heliocentric ecliptic J2000)
 Element Value Uncertainty (1-sigma)   Units 
e .3952050859345546 1.3587e-06  
a .9383565676407609 2.804e-07 AU
q .5675132796890403 1.4225e-06 AU
i 25.19429794979162 7.6024e-05 deg
node 262.8268009965732 5.2135e-05 deg
peri 237.3240652423142 8.0168e-05 deg
M 254.4726924539996 0.0010314 deg
tp 2456497.822359766026
(2013-Jul-24.32235977)
0.0009947 JED
period 332.0093190143863
0.91
0.00014882
4.074e-07
d
yr
n 1.084306913639375 4.8603e-07 deg/d
Q 1.309199855592482 3.9122e-07 AU
  Orbit Determination Parameters
   # obs. used (total)      123  
   data-arc span      433 days (1.19 yr)  
   first obs. used      2007-06-13  
   last obs. used      2008-08-19  
   planetary ephem.      DE405  
   SB-pert. ephem.      SB405-CPV-2  
   condition code      2  
   fit RMS      .57758  
   data source      ORB  
   producer      Otto Matic  
   solution date      2011-Sep-14 20:18:09  

Additional Information
 Earth MOID = .00625437 AU 
 T_jup = 6.251 
[ show covariance matrix ]

Ephemeris | Orbit Diagram | Orbital Elements | Physical Parameters | Close-Approach Data ]

Physical Parameter Table
Parameter Symbol Value Units Sigma Reference Notes
absolute magnitude H 19.423 mag .68075 30 autocmod 2.5a

[ show close-approach data ]
Ephemeris | Orbit Diagram | Orbital Elements | Physical Parameters | Close-Approach Data ]
ABOUT SSD CREDITS/AWARDS PRIVACY/COPYRIGHT GLOSSARY LINKS
FirstGov 2013-May-20 02:49 UT
(server date/time)  
NASA Home Page
Site Manager:   Donald K. Yeomans
Webmaster  Alan B. Chamberlin